STARLINK-32797 (62843 NORAD) Tracking and Keplerian Element Data

This shows tracking and keplerian element data for the satellite.

Feedback or suggestion? Click here.




ElementValue
Catalog62843
NameSTARLINK-32797
Epoch Orbit5000
Epoch Day353.60397079
Epoch Year2025
RAAN181.1912
Inclination42.9995
Eccentricity0.000141
Argument of Perigee267.608
Mean Anonmoly92.461
Mean Motion15.27583388
Decay Rate0.00014832
L11 62843U 25019Q 25353.60397079 .00014832 00000+0 54737-3 0 9995
L22 62843 42.9995 181.1912 0001410 267.6080 92.4610 15.27583388 50008



Live tracking and technical data element details for STARLINK-32797 (NORAD 62843). STARLINK-32797 can be tracked NOW for your location showing map with azimuth and elevation plus other details from your city location.







IsCatalogInMostPopularTable: catalog: 62843, numindb: 2
Update: records affected: 1



GetName: 62843 STARLINK-32797

Hit Count: updated at: Sat, 07 Feb 2026 09:08:39 GMT